| time (UTC) | temp C | wind direction | speed KPH | gust KPH | rain 1hr cm | rain 24hr cm | rain mn cm | humidity % | barometer mb |
| 20260509162517 | 26 | 225 | 3.2 | 9.7 | 0.00 | 0.28 | 0.28 | 24 | 1012.7 |
| 20260509162017 | 25 | 225 | 3.2 | 11.3 | 0.00 | 0.28 | 0.28 | 26 | 1012.7 |
| 20260509161557 | 25 | 0.0 | 3.2 | 0.00 | 0.28 | 0.28 | 32 | 1012.7 | |
| 20260509161017 | 25 | 0.0 | 3.2 | 0.00 | 0.28 | 0.28 | 31 | 1012.7 | |
| 20260509160517 | 24 | 225 | 1.6 | 4.8 | 0.00 | 0.28 | 0.28 | 32 | 1012.8 |
| 20260509160017 | 24 | 248 | 1.6 | 6.4 | 0.00 | 0.28 | 0.28 | 33 | 1012.8 |
| 20260509155517 | 24 | 0.0 | 1.6 | 0.00 | 0.28 | 0.28 | 35 | 1012.8 | |
| 20260509155017 | 23 | 90 | 1.6 | 3.2 | 0.00 | 0.28 | 0.28 | 35 | 1012.9 |
| 20260509154517 | 23 | 0.0 | 1.6 | 0.00 | 0.28 | 0.28 | 36 | 1012.8 | |
| 20260509154017 | 23 | 68 | 1.6 | 3.2 | 0.00 | 0.28 | 0.28 | 36 | 1012.6 |
| 20260509153537 | 23 | 68 | 1.6 | 3.2 | 0.00 | 0.28 | 0.28 | 36 | 1012.7 |
| 20260509153017 | 23 | 0.0 | 4.8 | 0.00 | 0.28 | 0.28 | 36 | 1012.6 | |
| 20260509152517 | 23 | 68 | 3.2 | 4.8 | 0.00 | 0.28 | 0.28 | 36 | 1012.5 |
| 20260509152017 | 23 | 68 | 3.2 | 4.8 | 0.00 | 0.28 | 0.28 | 36 | 1012.4 |
| 20260509151557 | 23 | 68 | 1.6 | 3.2 | 0.00 | 0.28 | 0.28 | 36 | 1012.4 |
| 20260509151017 | 23 | 68 | 3.2 | 3.2 | 0.00 | 0.28 | 0.28 | 36 | 1012.4 |
| 20260509150517 | 23 | 225 | 1.6 | 4.8 | 0.00 | 0.28 | 0.28 | 36 | 1012.3 |
| 20260509150017 | 23 | 0.0 | 3.2 | 0.00 | 0.28 | 0.28 | 36 | 1012.3 | |
| 20260509145517 | 23 | 248 | 1.6 | 3.2 | 0.00 | 0.28 | 0.28 | 36 | 1012.1 |
| 20260509145017 | 23 | 0.0 | 1.6 | 0.00 | 0.28 | 0.28 | 37 | 1012.2 | |
| 20260509144517 | 23 | 248 | 1.6 | 3.2 | 0.00 | 0.28 | 0.28 | 37 | 1012.2 |
| 20260509144017 | 23 | 0.0 | 3.2 | 0.00 | 0.28 | 0.28 | 37 | 1012.2 | |
| 20260509143537 | 23 | 0.0 | 0.0 | 0.00 | 0.28 | 0.28 | 37 | 1012.2 | |
| 20260509143017 | 23 | 0.0 | 0.0 | 0.00 | 0.28 | 0.28 | 37 | 1012.2 | |
| 20260509142537 | 22 | 0.0 | 0.0 | 0.00 | 0.28 | 0.28 | 37 | 1012.2 | |
| 20260509142037 | 22 | 0.0 | 1.6 | 0.00 | 0.28 | 0.28 | 37 | 1012.1 | |
| 20260509141517 | 22 | 0.0 | 0.0 | 0.00 | 0.28 | 0.28 | 37 | 1012.2 | |
| 20260509141017 | 22 | 0.0 | 0.0 | 0.00 | 0.28 | 0.28 | 37 | 1012.3 | |
| 20260509140517 | 22 | 0.0 | 0.0 | 0.00 | 0.28 | 0.28 | 37 | 1012.4 | |
| 20260509140017 | 22 | 0.0 | 0.0 | 0.00 | 0.28 | 0.28 | 37 | 1012.4 | |
| 20260509135517 | 22 | 0.0 | 1.6 | 0.00 | 0.28 | 0.28 | 37 | 1012.4 | |
| 20260509135017 | 22 | 0.0 | 1.6 | 0.00 | 0.28 | 0.28 | 37 | 1012.4 | |
| 20260509134517 | 22 | 0.0 | 1.6 | 0.00 | 0.28 | 0.28 | 37 | 1012.3 | |
| 20260509134037 | 22 | 0.0 | 1.6 | 0.00 | 0.28 | 0.28 | 37 | 1012.1 | |
| 20260509133557 | 22 | 0.0 | 1.6 | 0.00 | 0.28 | 0.28 | 37 | 1011.9 | |
| 20260509133018 | 22 | 0.0 | 1.6 | 0.00 | 0.28 | 0.28 | 37 | 1011.8 | |
| 20260509132538 | 22 | 0.0 | 3.2 | 0.00 | 0.28 | 0.28 | 37 | 1011.8 | |
| 20260509132017 | 22 | 0.0 | 3.2 | 0.00 | 0.28 | 0.28 | 37 | 1011.7 | |
| 20260509131518 | 22 | 225 | 1.6 | 3.2 | 0.00 | 0.28 | 0.28 | 37 | 1011.6 |
| 20260509131017 | 22 | 0.0 | 3.2 | 0.00 | 0.28 | 0.28 | 37 | 1011.2 | |
| 20260509130538 | 22 | 0.0 | 1.6 | 0.00 | 0.28 | 0.28 | 37 | 1010.9 | |
| 20260509130018 | 22 | 0.0 | 1.6 | 0.00 | 0.28 | 0.28 | 37 | 1010.6 | |
| 20260509125517 | 22 | 225 | 1.6 | 6.4 | 0.00 | 0.28 | 0.28 | 37 | 1010.8 |
| 20260509125018 | 22 | 0.0 | 4.8 | 0.00 | 0.28 | 0.28 | 37 | 1010.8 | |
| 20260509124518 | 22 | 225 | 1.6 | 6.4 | 0.00 | 0.28 | 0.28 | 37 | 1010.9 |
| 20260509124017 | 22 | 0.0 | 4.8 | 0.00 | 0.28 | 0.28 | 37 | 1010.7 | |
| 20260509123518 | 22 | 225 | 1.6 | 8.0 | 0.00 | 0.28 | 0.28 | 37 | 1010.7 |
| 20260509123018 | 22 | 225 | 1.6 | 6.4 | 0.00 | 0.28 | 0.28 | 37 | 1010.6 |
| 20260509122518 | 22 | 225 | 1.6 | 6.4 | 0.00 | 0.28 | 0.28 | 37 | 1010.6 |
| 20260509122017 | 22 | 225 | 1.6 | 9.7 | 0.00 | 0.28 | 0.28 | 37 | 1010.8 |
| 20260509121537 | 22 | 225 | 1.6 | 4.8 | 0.00 | 0.28 | 0.28 | 37 | 1011.0 |
| 20260509121037 | 22 | 225 | 1.6 | 4.8 | 0.00 | 0.28 | 0.28 | 37 | 1011.1 |
| 20260509120517 | 22 | 225 | 1.6 | 6.4 | 0.00 | 0.28 | 0.28 | 37 | 1011.0 |
| 20260509120017 | 22 | 225 | 1.6 | 6.4 | 0.00 | 0.28 | 0.28 | 37 | 1010.9 |
| 20260509115517 | 22 | 225 | 1.6 | 16.1 | 0.00 | 0.28 | 0.28 | 37 | 1010.7 |
| 20260509115037 | 22 | 225 | 3.2 | 16.1 | 0.00 | 0.28 | 0.28 | 37 | 1010.6 |
| 20260509114537 | 22 | 225 | 1.6 | 11.3 | 0.00 | 0.28 | 0.28 | 37 | 1010.7 |
| 20260509114017 | 21 | 135 | 1.6 | 4.8 | 0.00 | 0.28 | 0.28 | 37 | 1010.8 |
| 20260509113517 | 21 | 203 | 1.6 | 6.4 | 0.00 | 0.28 | 0.28 | 37 | 1011.3 |
| 20260509113018 | 21 | 0.0 | 6.4 | 0.00 | 0.28 | 0.28 | 37 | 1011.5 | |
| 20260509112518 | 21 | 0.0 | 8.0 | 0.00 | 0.28 | 0.28 | 37 | 1011.4 | |
| 20260509112017 | 21 | 225 | 1.6 | 8.0 | 0.00 | 0.28 | 0.28 | 37 | 1011.4 |
| 20260509111556 | 22 | 0.0 | 4.8 | 0.00 | 0.28 | 0.28 | 36 | 1011.4 | |
| 20260509111016 | 22 | 0.0 | 3.2 | 0.00 | 0.28 | 0.28 | 37 | 1011.5 | |
| 20260509110516 | 22 | 0.0 | 1.6 | 0.00 | 0.28 | 0.28 | 36 | 1011.6 | |
| 20260509110037 | 22 | 0.0 | 3.2 | 0.00 | 0.28 | 0.28 | 36 | 1011.9 | |
| 20260509105516 | 22 | 0.0 | 1.6 | 0.00 | 0.28 | 0.28 | 36 | 1012.0 | |
| 20260509105117 | 22 | 0.0 | 0.0 | 0.00 | 0.28 | 0.28 | 36 | 1012.0 | |
| 20260509104516 | 22 | 0.0 | 0.0 | 0.00 | 0.28 | 0.28 | 36 | 1012.0 | |
| 20260509104017 | 22 | 0.0 | 0.0 | 0.05 | 0.28 | 0.28 | 36 | 1011.9 | |
| 20260509103517 | 22 | 0.0 | 0.0 | 0.20 | 0.28 | 0.28 | 36 | 1011.8 | |
| 20260509103017 | 22 | 0.0 | 0.0 | 0.28 | 0.28 | 0.28 | 36 | 1011.9 | |
| 20260509102537 | 22 | 0.0 | 0.0 | 0.28 | 0.28 | 0.28 | 36 | 1011.9 | |
| 20260509102036 | 22 | 0.0 | 0.0 | 0.28 | 0.28 | 0.28 | 36 | 1011.7 | |
| 20260509101517 | 22 | 0.0 | 3.2 | 0.28 | 0.28 | 0.28 | 36 | 1011.5 | |
| 20260509101016 | 22 | 0.0 | 1.6 | 0.28 | 0.28 | 0.28 | 36 | 1011.5 | |
| 20260509100516 | 22 | 0.0 | 1.6 | 0.28 | 0.28 | 0.28 | 36 | 1011.3 | |
| 20260509100016 | 22 | 0.0 | 1.6 | 0.28 | 0.28 | 0.28 | 36 | 1011.3 | |
| 20260509095516 | 22 | 0.0 | 1.6 | 0.28 | 0.28 | 0.28 | 36 | 1011.5 | |
| 20260509095016 | 21 | 0.0 | 1.6 | 0.28 | 0.28 | 0.28 | 36 | 1011.7 | |
| 20260509094516 | 21 | 0.0 | 1.6 | 0.28 | 0.28 | 0.28 | 36 | 1011.7 | |
| 20260509094016 | 21 | 225 | 1.6 | 3.2 | 0.23 | 0.23 | 0.23 | 35 | 1011.6 |
| 20260509093516 | 21 | 0.0 | 3.2 | 0.08 | 0.08 | 0.08 | 35 | 1011.7 | |
| 20260509093036 | 21 | 0.0 | 0.0 | 0.00 | 0.00 | 0.00 | 35 | 1011.9 | |
| 20260509092517 | 21 | 0.0 | 0.0 | 0.00 | 0.00 | 0.00 | 35 | 1011.7 | |
| 20260509092016 | 22 | 0.0 | 0.0 | 0.00 | 0.00 | 0.00 | 35 | 1012.0 | |
| 20260509091516 | 22 | 0.0 | 0.0 | 0.00 | 0.00 | 0.00 | 35 | 1012.0 | |
| 20260509091016 | 22 | 0.0 | 0.0 | 0.00 | 0.00 | 0.00 | 35 | 1012.2 | |
| 20260509090516 | 22 | 0.0 | 0.0 | 0.00 | 0.00 | 0.00 | 35 | 1012.3 | |
| 20260509090017 | 22 | 0.0 | 0.0 | 0.00 | 0.00 | 0.00 | 35 | 1012.3 | |
| 20260509085516 | 22 | 0.0 | 0.0 | 0.00 | 0.00 | 0.00 | 34 | 1012.3 | |
| 20260509085016 | 22 | 0.0 | 0.0 | 0.00 | 0.00 | 0.00 | 34 | 1012.1 | |
| 20260509084516 | 22 | 0.0 | 0.0 | 0.00 | 0.00 | 0.00 | 34 | 1012.1 | |
| 20260509084016 | 22 | 0.0 | 0.0 | 0.00 | 0.00 | 0.00 | 34 | 1012.2 | |
| 20260509083516 | 22 | 0.0 | 0.0 | 0.00 | 0.00 | 0.00 | 34 | 1012.2 | |
| 20260509083017 | 22 | 0.0 | 0.0 | 0.00 | 0.00 | 0.00 | 34 | 1012.1 | |
| 20260509082516 | 22 | 0.0 | 0.0 | 0.00 | 0.00 | 0.00 | 34 | 1012.1 | |
| 20260509082016 | 22 | 0.0 | 0.0 | 0.00 | 0.00 | 0.00 | 33 | 1012.1 | |
| 20260509081516 | 22 | 0.0 | 0.0 | 0.00 | 0.00 | 0.00 | 33 | 1012.2 | |
| 20260509081016 | 22 | 0.0 | 0.0 | 0.00 | 0.00 | 0.00 | 33 | 1012.3 | |
| 20260509080516 | 22 | 0.0 | 0.0 | 0.00 | 0.00 | 0.00 | 33 | 1012.4 | |
| 20260509080016 | 22 | 0.0 | 1.6 | 0.00 | 0.00 | 0.00 | 32 | 1012.2 | |
| 20260509075516 | 22 | 0.0 | 1.6 | 0.00 | 0.00 | 0.00 | 32 | 1012.0 | |
| 20260509075016 | 22 | 0.0 | 1.6 | 0.00 | 0.00 | 0.00 | 32 | 1011.8 | |
| 20260509074516 | 21 | 0.0 | 0.0 | 0.00 | 0.00 | 0.00 | 32 | 1012.1 | |
| 20260509074016 | 21 | 0.0 | 0.0 | 0.00 | 0.00 | 0.00 | 31 | 1012.2 | |
| 20260509073516 | 22 | 0.0 | 0.0 | 0.00 | 0.00 | 0.00 | 31 | 1012.3 | |
| 20260509073016 | 22 | 0.0 | 0.0 | 0.00 | 0.00 | 0.00 | 31 | 1012.5 | |
| 20260509072556 | 22 | 0.0 | 0.0 | 0.00 | 0.00 | 0.00 | 31 | 1012.7 | |
| 20260509072036 | 22 | 0.0 | 0.0 | 0.00 | 0.00 | 0.00 | 31 | 1012.7 | |
| 20260509071516 | 22 | 0.0 | 0.0 | 0.00 | 0.00 | 0.00 | 31 | 1012.7 | |
| 20260509071016 | 22 | 0.0 | 0.0 | 0.00 | 0.00 | 0.00 | 31 | 1012.7 | |
| 20260509070516 | 22 | 0.0 | 0.0 | 0.00 | 0.00 | 0.00 | 31 | 1012.6 | |
| 20260509070016 | 22 | 0.0 | 0.0 | 0.00 | 0.00 | 0.00 | 31 | 1012.6 | |
| 20260509065536 | 22 | 0.0 | 0.0 | 0.00 | 0.00 | 0.00 | 31 | 1012.5 | |
| 20260509065016 | 22 | 0.0 | 0.0 | 0.00 | 0.00 | 0.00 | 31 | 1012.6 | |
| 20260509064516 | 22 | 0.0 | 0.0 | 0.00 | 0.00 | 0.00 | 31 | 1012.4 | |
| 20260509064017 | 22 | 0.0 | 0.0 | 0.00 | 0.00 | 0.00 | 31 | 1012.2 | |
| 20260509063537 | 22 | 0.0 | 1.6 | 0.00 | 0.00 | 0.00 | 31 | 1012.2 | |
| 20260509063016 | 22 | 0.0 | 1.6 | 0.00 | 0.00 | 0.00 | 31 | 1012.1 | |
| 20260509062516 | 22 | 0.0 | 1.6 | 0.00 | 0.00 | 0.00 | 32 | 1012.1 | |
| 20260509062016 | 21 | 0.0 | 1.6 | 0.00 | 0.00 | 0.00 | 32 | 1012.1 | |
| 20260509061516 | 21 | 0.0 | 0.0 | 0.00 | 0.00 | 0.00 | 32 | 1012.0 | |
| 20260509061016 | 21 | 0.0 | 1.6 | 0.00 | 0.00 | 0.00 | 32 | 1011.6 | |
| 20260509060536 | 21 | 0.0 | 1.6 | 0.00 | 0.00 | 0.00 | 32 | 1011.7 | |
| 20260509060016 | 21 | 0.0 | 1.6 | 0.00 | 0.00 | 0.00 | 32 | 1011.7 | |
| 20260509055516 | 21 | 0.0 | 4.8 | 0.00 | 0.00 | 0.00 | 32 | 1011.5 | |
| 20260509055016 | 21 | 0.0 | 3.2 | 0.00 | 0.00 | 0.00 | 32 | 1011.4 | |
| 20260509054516 | 21 | 225 | 1.6 | 6.4 | 0.00 | 0.00 | 0.00 | 32 | 1011.2 |
| 20260509054016 | 21 | 0.0 | 4.8 | 0.00 | 0.00 | 0.00 | 32 | 1011.2 | |
| 20260509053516 | 21 | 225 | 1.6 | 6.4 | 0.00 | 0.00 | 0.00 | 32 | 1011.4 |
| 20260509053016 | 21 | 0.0 | 3.2 | 0.00 | 0.00 | 0.00 | 31 | 1011.5 | |
| 20260509052516 | 21 | 0.0 | 6.4 | 0.00 | 0.00 | 0.00 | 31 | 1011.6 | |
| 20260509052016 | 21 | 0.0 | 6.4 | 0.00 | 0.00 | 0.00 | 31 | 1011.8 | |
| 20260509051518 | 21 | 0.0 | 1.6 | 0.00 | 0.00 | 0.00 | 31 | 1011.6 | |
| 20260509051017 | 21 | 0.0 | 1.6 | 0.00 | 0.00 | 0.00 | 31 | 1011.6 | |
| 20260509050517 | 21 | 0.0 | 1.6 | 0.00 | 0.00 | 0.00 | 32 | 1011.7 | |
| 20260509050016 | 21 | 0.0 | 0.0 | 0.00 | 0.00 | 0.00 | 32 | 1011.9 | |
| 20260509045517 | 21 | 0.0 | 1.6 | 0.00 | 0.00 | 0.00 | 32 | 1011.9 | |
| 20260509045016 | 21 | 0.0 | 1.6 | 0.00 | 0.00 | 0.00 | 32 | 1011.9 | |
| 20260509044517 | 21 | 0.0 | 1.6 | 0.00 | 0.00 | 0.00 | 32 | 1011.8 | |
| 20260509044016 | 21 | 0.0 | 1.6 | 0.00 | 0.00 | 0.00 | 33 | 1011.8 | |
| 20260509043556 | 21 | 0.0 | 1.6 | 0.00 | 0.00 | 0.00 | 33 | 1011.8 | |
| 20260509043016 | 21 | 0.0 | 1.6 | 0.00 | 0.00 | 0.00 | 33 | 1011.7 | |
| 20260509042516 | 21 | 0.0 | 1.6 | 0.00 | 0.00 | 0.00 | 34 | 1011.5 | |
| 20260509042016 | 21 | 0.0 | 1.6 | 0.00 | 0.00 | 0.00 | 35 | 1011.5 | |
| 20260509041516 | 21 | 0.0 | 0.0 | 0.00 | 0.00 | 0.00 | 38 | 1011.4 | |
| 20260509041016 | 21 | 0.0 | 0.0 | 0.00 | 0.00 | 0.00 | 41 | 1011.4 | |
| 20260509040516 | 21 | 0.0 | 0.0 | 0.00 | 0.00 | 0.00 | 41 | 1011.3 | |
| 20260509040016 | 21 | 0.0 | 0.0 | 0.00 | 0.00 | 0.00 | 43 | 1011.3 | |
| 20260509035516 | 21 | 0.0 | 0.0 | 0.00 | 0.00 | 0.00 | 44 | 1011.2 | |
| 20260509035017 | 22 | 0.0 | 0.0 | 0.00 | 0.00 | 0.00 | 44 | 1011.2 | |
| 20260509034516 | 22 | 0.0 | 0.0 | 0.00 | 0.00 | 0.00 | 45 | 1011.0 | |
| 20260509034036 | 22 | 0.0 | 0.0 | 0.00 | 0.00 | 0.00 | 45 | 1011.0 | |
| 20260509033516 | 22 | 0.0 | 0.0 | 0.00 | 0.00 | 0.00 | 45 | 1011.0 | |
| 20260509033016 | 22 | 0.0 | 0.0 | 0.00 | 0.00 | 0.00 | 46 | 1011.2 | |
| 20260509032516 | 22 | 0.0 | 0.0 | 0.00 | 0.00 | 0.00 | 46 | 1011.1 | |
| 20260509032016 | 22 | 0.0 | 1.6 | 0.00 | 0.00 | 0.00 | 47 | 1011.0 | |
| 20260509031516 | 22 | 0.0 | 1.6 | 0.00 | 0.00 | 0.00 | 48 | 1011.1 | |
| 20260509031016 | 22 | 0.0 | 1.6 | 0.00 | 0.00 | 0.00 | 48 | 1011.0 | |
| 20260509030516 | 22 | 0.0 | 1.6 | 0.00 | 0.00 | 0.00 | 49 | 1010.9 | |
| 20260509030016 | 22 | 0.0 | 4.8 | 0.00 | 0.00 | 0.00 | 49 | 1010.8 | |
| 20260509025516 | 22 | 0.0 | 4.8 | 0.00 | 0.00 | 0.00 | 50 | 1010.8 | |
| 20260509025017 | 22 | 0.0 | 1.6 | 0.00 | 0.00 | 0.00 | 50 | 1010.7 | |
| 20260509024556 | 22 | 0.0 | 3.2 | 0.00 | 0.00 | 0.00 | 51 | 1010.7 | |
| 20260509024016 | 22 | 0.0 | 3.2 | 0.00 | 0.00 | 0.00 | 51 | 1010.6 | |
| 20260509023517 | 22 | 0.0 | 3.2 | 0.00 | 0.00 | 0.00 | 51 | 1010.6 | |
| 20260509023016 | 22 | 0.0 | 1.6 | 0.00 | 0.00 | 0.00 | 51 | 1010.6 | |
| 20260509022516 | 22 | 90 | 1.6 | 3.2 | 0.00 | 0.00 | 0.00 | 51 | 1010.6 |
| 20260509022016 | 23 | 0.0 | 1.6 | 0.00 | 0.00 | 0.00 | 51 | 1010.6 | |
| 20260509021516 | 23 | 0.0 | 1.6 | 0.00 | 0.00 | 0.00 | 51 | 1010.6 | |
| 20260509021017 | 23 | 0.0 | 1.6 | 0.00 | 0.00 | 0.00 | 51 | 1010.5 | |
| 20260509020517 | 23 | 0.0 | 3.2 | 0.00 | 0.00 | 0.00 | 52 | 1010.5 | |
| 20260509020017 | 23 | 0.0 | 4.8 | 0.00 | 0.00 | 0.00 | 52 | 1010.5 | |
| 20260509015536 | 23 | 0.0 | 4.8 | 0.00 | 0.00 | 0.00 | 53 | 1010.3 | |
| 20260509015016 | 23 | 0.0 | 1.6 | 0.00 | 0.00 | 0.00 | 53 | 1010.4 | |
| 20260509014516 | 23 | 135 | 1.6 | 4.8 | 0.00 | 0.00 | 0.00 | 54 | 1010.3 |
| 20260509014016 | 23 | 23 | 1.6 | 6.4 | 0.00 | 0.00 | 0.00 | 54 | 1010.3 |
| 20260509013536 | 23 | 135 | 1.6 | 3.2 | 0.00 | 0.00 | 0.00 | 54 | 1010.2 |
| 20260509013016 | 23 | 0.0 | 3.2 | 0.00 | 0.00 | 0.00 | 54 | 1010.3 | |
| 20260509012516 | 23 | 0.0 | 3.2 | 0.00 | 0.00 | 0.00 | 54 | 1010.4 | |
| 20260509012016 | 23 | 90 | 1.6 | 4.8 | 0.00 | 0.00 | 0.00 | 54 | 1010.4 |
| 20260509011516 | 23 | 135 | 1.6 | 6.4 | 0.00 | 0.00 | 0.00 | 55 | 1010.5 |
| 20260509011016 | 23 | 0.0 | 3.2 | 0.00 | 0.00 | 0.00 | 55 | 1010.6 | |
| 20260509010516 | 23 | 0.0 | 1.6 | 0.00 | 0.00 | 0.00 | 55 | 1010.5 | |
| 20260509010016 | 23 | 0.0 | 1.6 | 0.00 | 0.00 | 0.00 | 55 | 1010.6 | |
| 20260509005517 | 24 | 0.0 | 1.6 | 0.00 | 0.00 | 0.00 | 55 | 1010.5 | |
| 20260509005016 | 24 | 0.0 | 1.6 | 0.00 | 0.00 | 0.00 | 55 | 1010.5 | |
| 20260509004536 | 24 | 0.0 | 3.2 | 0.00 | 0.00 | 0.00 | 55 | 1010.4 | |
| 20260509004016 | 24 | 0.0 | 1.6 | 0.00 | 0.00 | 0.00 | 55 | 1010.4 | |
| 20260509003516 | 24 | 0.0 | 3.2 | 0.00 | 0.00 | 0.00 | 54 | 1010.3 | |
| 20260509003016 | 25 | 0.0 | 3.2 | 0.00 | 0.00 | 0.00 | 54 | 1010.2 | |
| 20260509002516 | 25 | 0.0 | 1.6 | 0.00 | 0.00 | 0.00 | 54 | 1010.2 | |
| 20260509002016 | 25 | 90 | 1.6 | 4.8 | 0.00 | 0.00 | 0.00 | 53 | 1010.3 |
| 20260509001516 | 25 | 68 | 1.6 | 6.4 | 0.00 | 0.00 | 0.00 | 53 | 1010.2 |
| 20260509001016 | 25 | 68 | 1.6 | 4.8 | 0.00 | 0.00 | 0.00 | 52 | 1010.2 |
| 20260509000516 | 25 | 0.0 | 3.2 | 0.00 | 0.00 | 0.00 | 52 | 1010.3 | |
| 20260509000016 | 25 | 0.0 | 3.2 | 0.00 | 0.00 | 0.00 | 52 | 1010.4 | |
| 20260508235536 | 25 | 135 | 1.6 | 4.8 | 0.00 | 0.00 | 0.00 | 52 | 1010.4 |
| 20260508235016 | 25 | 135 | 1.6 | 3.2 | 0.00 | 0.00 | 0.00 | 53 | 1010.3 |
| 20260508234515 | 25 | 135 | 1.6 | 6.4 | 0.00 | 0.00 | 0.00 | 53 | 1010.3 |
| 20260508234016 | 25 | 225 | 1.6 | 4.8 | 0.00 | 0.00 | 0.00 | 53 | 1010.3 |
| 20260508233516 | 25 | 0.0 | 3.2 | 0.00 | 0.00 | 0.00 | 52 | 1010.4 | |
| 20260508233016 | 25 | 113 | 1.6 | 4.8 | 0.00 | 0.00 | 0.00 | 53 | 1010.4 |
| 20260508232516 | 25 | 68 | 1.6 | 4.8 | 0.00 | 0.00 | 0.00 | 52 | 1010.4 |
| 20260508232016 | 25 | 68 | 1.6 | 8.0 | 0.00 | 0.00 | 0.00 | 51 | 1010.5 |
| 20260508231516 | 25 | 135 | 1.6 | 4.8 | 0.00 | 0.00 | 0.00 | 52 | 1010.5 |
| 20260508231016 | 25 | 68 | 3.2 | 9.7 | 0.00 | 0.00 | 0.00 | 52 | 1010.5 |
| 20260508230516 | 25 | 68 | 3.2 | 4.8 | 0.00 | 0.00 | 0.00 | 51 | 1010.5 |
| 20260508230016 | 25 | 135 | 3.2 | 6.4 | 0.00 | 0.00 | 0.00 | 52 | 1010.5 |
| 20260508225516 | 25 | 68 | 3.2 | 6.4 | 0.00 | 0.00 | 0.00 | 52 | 1010.5 |
| 20260508225036 | 25 | 68 | 6.4 | 9.7 | 0.00 | 0.00 | 0.00 | 51 | 1010.4 |
| 20260508224515 | 25 | 68 | 8.0 | 11.3 | 0.00 | 0.00 | 0.00 | 52 | 1010.6 |
| 20260508224015 | 25 | 68 | 8.0 | 12.9 | 0.00 | 0.00 | 0.00 | 52 | 1010.7 |
| 20260508223516 | 25 | 68 | 4.8 | 9.7 | 0.00 | 0.00 | 0.00 | 52 | 1010.8 |
| 20260508223016 | 25 | 45 | 4.8 | 6.4 | 0.00 | 0.00 | 0.00 | 52 | 1011.0 |
| 20260508222515 | 25 | 45 | 3.2 | 4.8 | 0.00 | 0.00 | 0.00 | 52 | 1011.0 |
| 20260508222036 | 25 | 45 | 1.6 | 3.2 | 0.00 | 0.00 | 0.00 | 51 | 1011.1 |
| 20260508221516 | 25 | 0.0 | 1.6 | 0.00 | 0.00 | 0.00 | 51 | 1011.2 | |
| 20260508221016 | 25 | 0.0 | 1.6 | 0.00 | 0.00 | 0.00 | 51 | 1011.2 | |
| 20260508220516 | 25 | 0.0 | 1.6 | 0.00 | 0.00 | 0.00 | 51 | 1011.3 | |
| 20260508220015 | 25 | 0.0 | 1.6 | 0.00 | 0.00 | 0.00 | 50 | 1011.3 | |
| 20260508215516 | 25 | 0.0 | 3.2 | 0.00 | 0.00 | 0.00 | 50 | 1011.3 | |
| 20260508215018 | 25 | 68 | 1.6 | 3.2 | 0.00 | 0.00 | 0.00 | 50 | 1011.2 |
| 20260508214519 | 25 | 68 | 1.6 | 3.2 | 0.00 | 0.00 | 0.00 | 49 | 1011.3 |
| 20260508214018 | 25 | 45 | 1.6 | 3.2 | 0.00 | 0.00 | 0.00 | 49 | 1011.3 |
| 20260508213517 | 25 | 45 | 1.6 | 3.2 | 0.00 | 0.00 | 0.00 | 50 | 1011.3 |
| 20260508213038 | 25 | 0.0 | 3.2 | 0.00 | 0.00 | 0.00 | 50 | 1011.2 | |
| 20260508212538 | 25 | 45 | 1.6 | 4.8 | 0.00 | 0.00 | 0.00 | 51 | 1011.3 |
| 20260508212018 | 25 | 0.0 | 3.2 | 0.00 | 0.00 | 0.00 | 50 | 1011.5 | |
| 20260508211518 | 25 | 0.0 | 1.6 | 0.00 | 0.00 | 0.00 | 51 | 1011.4 | |
| 20260508211018 | 25 | 0.0 | 1.6 | 0.00 | 0.00 | 0.00 | 51 | 1011.6 | |
| 20260508210518 | 25 | 45 | 3.2 | 8.0 | 0.00 | 0.00 | 0.00 | 50 | 1011.6 |
| 20260508210018 | 25 | 45 | 1.6 | 8.0 | 0.00 | 0.00 | 0.00 | 49 | 1011.7 |
| 20260508205518 | 25 | 203 | 1.6 | 3.2 | 0.00 | 0.00 | 0.00 | 48 | 1011.6 |
| 20260508205018 | 25 | 0.0 | 3.2 | 0.00 | 0.00 | 0.00 | 49 | 1011.7 | |
| 20260508204517 | 25 | 225 | 1.6 | 4.8 | 0.00 | 0.00 | 0.00 | 49 | 1011.6 |
| 20260508204038 | 24 | 68 | 3.2 | 8.0 | 0.00 | 0.00 | 0.00 | 49 | 1011.7 |
| 20260508203518 | 24 | 68 | 3.2 | 9.7 | 0.00 | 0.00 | 0.00 | 50 | 1011.9 |
| 20260508203017 | 24 | 68 | 3.2 | 6.4 | 0.00 | 0.00 | 0.00 | 50 | 1011.8 |
| 20260508202518 | 24 | 68 | 1.6 | 6.4 | 0.00 | 0.00 | 0.00 | 50 | 1011.9 |
| 20260508202017 | 23 | 45 | 3.2 | 6.4 | 0.00 | 0.00 | 0.00 | 51 | 1011.8 |
| 20260508201517 | 23 | 45 | 3.2 | 4.8 | 0.00 | 0.00 | 0.00 | 51 | 1011.9 |
| 20260508201018 | 23 | 45 | 3.2 | 4.8 | 0.00 | 0.00 | 0.00 | 50 | 1011.9 |
| 20260508200519 | 23 | 45 | 3.2 | 4.8 | 0.00 | 0.00 | 0.00 | 51 | 1012.0 |
| 20260508200017 | 23 | 45 | 3.2 | 4.8 | 0.00 | 0.00 | 0.00 | 51 | 1012.1 |
| 20260508195517 | 22 | 45 | 4.8 | 6.4 | 0.00 | 0.00 | 0.00 | 51 | 1012.2 |
| 20260508195017 | 22 | 45 | 6.4 | 8.0 | 0.00 | 0.00 | 0.00 | 50 | 1012.3 |
| 20260508194517 | 23 | 45 | 4.8 | 8.0 | 0.00 | 0.00 | 0.00 | 50 | 1012.4 |
| 20260508194018 | 23 | 45 | 3.2 | 4.8 | 0.00 | 0.00 | 0.00 | 50 | 1012.3 |
| 20260508193517 | 23 | 45 | 4.8 | 6.4 | 0.00 | 0.00 | 0.00 | 50 | 1012.5 |
| 20260508193018 | 23 | 45 | 1.6 | 4.8 | 0.00 | 0.00 | 0.00 | 50 | 1012.5 |
| 20260508192517 | 23 | 248 | 1.6 | 1.6 | 0.00 | 0.00 | 0.00 | 49 | 1012.7 |
| 20260508192017 | 23 | 248 | 1.6 | 1.6 | 0.00 | 0.00 | 0.00 | 49 | 1012.8 |
| 20260508191517 | 22 | 0.0 | 3.2 | 0.00 | 0.00 | 0.00 | 49 | 1012.9 | |
| 20260508191017 | 22 | 0.0 | 1.6 | 0.00 | 0.00 | 0.00 | 49 | 1013.2 | |
| 20260508190517 | 22 | 0.0 | 1.6 | 0.00 | 0.00 | 0.00 | 49 | 1013.3 | |
| 20260508190037 | 22 | 0.0 | 1.6 | 0.00 | 0.00 | 0.00 | 49 | 1013.3 | |
| 20260508185517 | 22 | 0.0 | 1.6 | 0.00 | 0.00 | 0.00 | 49 | 1013.4 | |
| 20260508185017 | 22 | 135 | 1.6 | 3.2 | 0.00 | 0.00 | 0.00 | 49 | 1013.3 |
| 20260508184517 | 22 | 23 | 3.2 | 6.4 | 0.00 | 0.00 | 0.00 | 48 | 1013.1 |
| 20260508184017 | 22 | 23 | 1.6 | 4.8 | 0.00 | 0.00 | 0.00 | 48 | 1013.2 |
| 20260508183558 | 21 | 23 | 3.2 | 6.4 | 0.00 | 0.00 | 0.00 | 49 | 1013.1 |
| 20260508183017 | 21 | 23 | 3.2 | 6.4 | 0.00 | 0.00 | 0.00 | 48 | 1013.1 |
| 20260508182517 | 21 | 68 | 4.8 | 9.7 | 0.00 | 0.00 | 0.00 | 48 | 1013.2 |
| 20260508182037 | 21 | 45 | 3.2 | 6.4 | 0.00 | 0.00 | 0.00 | 49 | 1013.3 |
| 20260508181517 | 20 | 45 | 3.2 | 8.0 | 0.00 | 0.00 | 0.00 | 50 | 1013.3 |
| 20260508181017 | 20 | 68 | 4.8 | 8.0 | 0.00 | 0.00 | 0.00 | 50 | 1013.6 |
| 20260508180538 | 20 | 68 | 4.8 | 8.0 | 0.00 | 0.00 | 0.00 | 51 | 1013.6 |
| 20260508180017 | 19 | 68 | 6.4 | 11.3 | 0.00 | 0.00 | 0.00 | 51 | 1013.8 |
| 20260508175517 | 19 | 45 | 4.8 | 8.0 | 0.00 | 0.00 | 0.00 | 51 | 1013.8 |
| 20260508175017 | 19 | 45 | 3.2 | 6.4 | 0.00 | 0.00 | 0.00 | 51 | 1014.0 |
| 20260508174537 | 19 | 45 | 3.2 | 8.0 | 0.00 | 0.00 | 0.00 | 51 | 1014.1 |
| 20260508174017 | 19 | 23 | 1.6 | 6.4 | 0.00 | 0.00 | 0.00 | 51 | 1014.1 |
| 20260508173517 | 19 | 45 | 1.6 | 3.2 | 0.00 | 0.00 | 0.00 | 51 | 1014.3 |
| 20260508173017 | 19 | 45 | 3.2 | 8.0 | 0.00 | 0.00 | 0.00 | 51 | 1014.3 |
| 20260508172537 | 19 | 68 | 3.2 | 6.4 | 0.00 | 0.00 | 0.00 | 51 | 1014.4 |
| 20260508172017 | 19 | 68 | 3.2 | 6.4 | 0.00 | 0.00 | 0.00 | 51 | 1014.5 |
| 20260508171517 | 19 | 45 | 1.6 | 4.8 | 0.00 | 0.00 | 0.00 | 51 | 1014.6 |
| 20260508171017 | 19 | 23 | 3.2 | 6.4 | 0.00 | 0.00 | 0.00 | 51 | 1014.5 |
| 20260508170538 | 19 | 45 | 4.8 | 8.0 | 0.00 | 0.00 | 0.00 | 51 | 1014.6 |
| 20260508170037 | 19 | 45 | 4.8 | 8.0 | 0.00 | 0.00 | 0.00 | 51 | 1014.6 |
| 20260508165517 | 19 | 23 | 4.8 | 8.0 | 0.00 | 0.00 | 0.00 | 51 | 1014.7 |
| 20260508165017 | 19 | 45 | 3.2 | 8.0 | 0.00 | 0.00 | 0.00 | 51 | 1014.7 |
| 20260508164517 | 19 | 23 | 4.8 | 9.7 | 0.00 | 0.00 | 0.00 | 51 | 1014.7 |
| 20260508164037 | 19 | 45 | 4.8 | 8.0 | 0.00 | 0.00 | 0.00 | 52 | 1015.0 |
| 20260508163517 | 18 | 23 | 3.2 | 8.0 | 0.00 | 0.00 | 0.00 | 51 | 1014.8 |
| 20260508163017 | 19 | 45 | 6.4 | 9.7 | 0.00 | 0.00 | 0.00 | 52 | 1014.9 |